Weather in Kovrino

Russia / Rostov Oblast     47°00′37″N   41°45′40″E
temp.,
°C
wind,
m/s
gust,
m/s
humid.,
%
clouds,
%
prec.,
mm/h
press.,
hPa
HPBL,
m
28 july, wed
wed2800:00+20ssw476199 0.0 1019237
03:00+18wsw476923 0.0 1019149
06:00+18w35723 0.0 1018147
09:00+26nnw33480 0.0 1018501
12:00+31ene34245 0.0 10162919
15:00+32ne23221 0.0 10153252
18:00+31n222546 0.0 10152378
21:00+25sse01325 0.0 101511
29 july, thu
thu2900:00+23w11375 0.0 101511
03:00+22w124251 0.0 101511
06:00+22w22495 0.0 101437
09:00+30w213692 0.0 1014545
12:00+33sw32231 0.0 10133082
15:00+34sw32212 0.0 10123247
18:00+33ssw222324 0.0 10112432
21:00+27sse45288 0.0 101168
30 july, fri
fri3000:00+25wsw343242 0.0 101279
03:00+23sw36391 0.0 101198
06:00+23wsw36450 0.0 1011113
09:00+30sw34312 0.0 1011534
12:00+34ssw45213 0.0 10112615
15:00+35sw34180 0.0 10093192
18:00+34s23200 0.0 10082220
21:00+27sse46270 0.0 100984
31 july, sat
sat3100:00+25s46310 0.0 100977
03:00+23s33343 0.0 101027
06:00+23s34362 0.0 101060
09:00+31s33285 0.0 1010425
12:00+34sse33215 0.0 10092731
15:00+36se331992 0.0 10083131
18:00+34se34212 0.0 1009809
21:00+28s33240 0.0 100921
1 august, sun
sun100:00+27ese23260 0.0 100914
03:00+25e33300 0.0 101028
06:00+25ese23390 0.0 101033
09:00+32se34270 0.0 1010594
12:00+36ese45180 0.0 10093008
15:00+37se54190 0.0 10083197
18:00+35se24220 0.0 10082187
21:00+29ese33290 0.0 100926